GW1010 Weather Reports


Display with metric or nautical units.
time (UTC)temp
F
wind
direction
speed
MPH
gust
MPH
rain 1hr
in
rain 24hr
in
rain mn
in
humidity
%
barometer
mb
20260906165034 66 340 1.0 6.0 0.00 0.00 0.00 57 1015.8
20260906164546 65 6 0.0 6.0 0.00 0.00 0.00 57 1015.8
20260906164029 64 0 0.0 2.0 0.00 0.00 0.00 61 1015.9
20260906163529 64 288 0.0 2.0 0.00 0.00 0.00 61 1015.9
20260906163044 63 302 1.0 2.0 0.00 0.00 0.00 63 1016.0
20260906162531 62 0 0.0 2.0 0.00 0.00 0.00 65 1016.0
20260906162027 61 25 0.0 2.0 0.00 0.00 0.00 66 1015.9
20260906161553 60 0 0.0 1.0 0.00 0.00 0.00 68 1016.0
20260906161027 60 0 0.0 1.0 0.00 0.00 0.00 69 1016.0
20260906160527 59 0 0.0 1.0 0.00 0.00 0.00 75 1016.1
20260906160050 58 0 0.0 1.0 0.00 0.00 0.00 75 1016.0
20260906155527 57 0 0.0 0.0 0.00 0.00 0.00 78 1016.0
20260906155029 56 0 0.0 0.0 0.00 0.00 0.00 79 1016.0
20260906154548 55 0 0.0 0.0 0.00 0.00 0.00 80 1016.0
20260906154030 54 0 0.0 0.0 0.00 0.00 0.00 82 1016.1
20260906153528 54 0 0.0 0.0 0.00 0.00 0.00 83 1016.0
20260906153045 53 0 0.0 0.0 0.00 0.00 0.00 86 1016.1
20260906152527 52 0 0.0 0.0 0.00 0.00 0.00 86 1016.1
20260906152027 52 0 0.0 0.0 0.00 0.00 0.00 88 1016.2
20260906151546 51 0 0.0 0.0 0.00 0.00 0.00 89 1016.1
20260906151032 50 0 0.0 0.0 0.00 0.00 0.00 90 1016.2
20260906150527 50 0 0.0 0.0 0.00 0.00 0.00 92 1016.2
20260906150050 49 0 0.0 0.0 0.00 0.00 0.00 93 1016.1
20260906145532 48 0 0.0 0.0 0.00 0.00 0.00 94 1016.2
20260906145029 48 0 0.0 0.0 0.00 0.00 0.00 94 1016.1
20260906144604 47 0 0.0 0.0 0.00 0.00 0.00 94 1016.2
20260906144029 46 0 0.0 0.0 0.00 0.00 0.00 94 1016.2
20260906143526 45 0 0.0 0.0 0.00 0.00 0.00 94 1016.1
20260906143042 45 0 0.0 0.0 0.00 0.00 0.00 94 1016.1
20260906142529 44 0 0.0 0.0 0.00 0.00 0.00 93 1016.1
20260906142026 44 0 0.0 0.0 0.00 0.00 0.00 93 1015.9
20260906141543 44 0 0.0 0.0 0.00 0.00 0.00 93 1015.8
20260906141027 44 0 0.0 0.0 0.00 0.00 0.00 93 1015.7
20260906140526 44 0 0.0 0.0 0.00 0.00 0.00 93 1015.6
20260906140052 44 0 0.0 0.0 0.00 0.00 0.00 93 1015.6
20260906135529 44 0 0.0 0.0 0.00 0.00 0.00 93 1015.7
20260906135025 44 0 0.0 0.0 0.00 0.00 0.00 93 1015.6
20260906134551 44 0 0.0 0.0 0.00 0.00 0.00 93 1015.6
20260906134026 44 0 0.0 0.0 0.00 0.00 0.00 93 1015.6
20260906133529 44 0 0.0 0.0 0.00 0.00 0.00 93 1015.6
20260906133056 44 0 0.0 0.0 0.00 0.00 0.00 93 1015.6
20260906132527 44 0 0.0 0.0 0.00 0.00 0.00 93 1015.7
20260906132027 44 0 0.0 0.0 0.00 0.00 0.00 93 1015.7
20260906131553 44 0 0.0 0.0 0.00 0.00 0.00 92 1015.6
20260906131027 44 0 0.0 0.0 0.00 0.00 0.00 92 1015.7
20260906130527 44 0 0.0 0.0 0.00 0.00 0.00 92 1015.7
20260906130103 44 0 0.0 0.0 0.00 0.00 0.00 92 1015.7
20260906125527 44 0 0.0 0.0 0.00 0.00 0.00 92 1015.7
20260906125027 45 0 0.0 0.0 0.00 0.00 0.00 92 1015.6
20260906124547 45 0 0.0 0.0 0.00 0.00 0.00 92 1015.6
20260906124026 45 0 0.0 0.0 0.00 0.00 0.00 92 1015.6
20260906123529 45 0 0.0 0.0 0.00 0.00 0.00 92 1015.5
20260906123044 45 0 0.0 0.0 0.00 0.00 0.00 92 1015.5
20260906122527 45 0 0.0 0.0 0.00 0.00 0.00 92 1015.6
20260906122028 45 0 0.0 0.0 0.00 0.00 0.00 91 1015.7
20260906121543 45 0 0.0 0.0 0.00 0.00 0.00 91 1015.7
20260906121028 45 0 0.0 0.0 0.00 0.00 0.00 91 1015.7
20260906120526 45 0 0.0 0.0 0.00 0.00 0.00 90 1015.6
20260906120054 45 0 0.0 0.0 0.00 0.00 0.00 91 1015.6
20260906115527 45 0 0.0 0.0 0.00 0.00 0.00 91 1015.7
20260906115027 45 0 0.0 0.0 0.00 0.00 0.00 91 1015.6
20260906114556 46 0 0.0 0.0 0.00 0.00 0.00 92 1015.6
20260906114028 46 0 0.0 0.0 0.00 0.00 0.00 92 1015.5
20260906113529 46 0 0.0 0.0 0.00 0.00 0.00 91 1015.6
20260906113044 46 0 0.0 0.0 0.00 0.00 0.00 91 1015.7
20260906112526 46 0 0.0 0.0 0.00 0.00 0.00 91 1015.6
20260906112030 47 0 0.0 0.0 0.00 0.00 0.00 92 1015.5
20260906111542 47 0 0.0 0.0 0.00 0.00 0.00 91 1015.6
20260906111026 47 0 0.0 0.0 0.00 0.00 0.00 91 1015.5
20260906110527 47 0 0.0 0.0 0.00 0.00 0.00 91 1015.5
20260906110052 47 0 0.0 0.0 0.00 0.00 0.00 91 1015.5
20260906105528 47 0 0.0 0.0 0.00 0.00 0.00 90 1015.5
20260906105028 47 0 0.0 0.0 0.00 0.00 0.00 91 1015.4
20260906104557 48 0 0.0 0.0 0.00 0.00 0.00 91 1015.3
20260906104027 48 0 0.0 0.0 0.00 0.00 0.00 90 1015.3
20260906103526 48 0 0.0 0.0 0.00 0.00 0.00 90 1015.4
20260906103046 48 0 0.0 0.0 0.00 0.00 0.00 90 1015.3
20260906102529 48 0 0.0 0.0 0.00 0.00 0.00 91 1015.3
20260906102027 48 0 0.0 0.0 0.00 0.00 0.00 90 1015.2
20260906101556 48 0 0.0 0.0 0.00 0.00 0.00 90 1015.2
20260906101026 48 0 0.0 0.0 0.00 0.00 0.00 89 1015.3
20260906100529 48 0 0.0 0.0 0.00 0.00 0.00 89 1015.1
20260906100052 49 0 0.0 0.0 0.00 0.00 0.00 89 1015.2
20260906095529 49 0 0.0 0.0 0.00 0.00 0.00 89 1015.2
20260906095028 49 0 0.0 0.0 0.00 0.00 0.00 89 1015.1
20260906094602 49 0 0.0 0.0 0.00 0.00 0.00 89 1015.2
20260906094035 49 0 0.0 0.0 0.00 0.00 0.00 89 1015.2
20260906093526 49 0 0.0 0.0 0.00 0.00 0.00 89 1015.2
20260906093108 49 0 0.0 0.0 0.00 0.00 0.00 88 1015.2
20260906092529 49 0 0.0 0.0 0.00 0.00 0.00 88 1015.2
20260906092027 49 0 0.0 0.0 0.00 0.00 0.00 88 1015.3
20260906091603 49 0 0.0 0.0 0.00 0.00 0.00 87 1015.3
20260906091031 50 0 0.0 0.0 0.00 0.00 0.00 87 1015.3
20260906090532 50 0 0.0 0.0 0.00 0.00 0.00 88 1015.3
20260906090054 50 0 0.0 0.0 0.00 0.00 0.00 87 1015.3
20260906085533 50 0 0.0 0.0 0.00 0.00 0.00 87 1015.3
20260906085029 50 0 0.0 0.0 0.00 0.00 0.00 87 1015.3
20260906084549 51 0 0.0 0.0 0.00 0.00 0.00 88 1015.2
20260906084030 51 0 0.0 0.0 0.00 0.00 0.00 87 1015.4
20260906083529 51 0 0.0 0.0 0.00 0.00 0.00 87 1015.4
20260906083048 51 0 0.0 0.0 0.00 0.00 0.00 87 1015.5
20260906082526 51 0 0.0 1.0 0.00 0.00 0.00 86 1015.4
20260906082033 51 0 0.0 1.0 0.00 0.00 0.00 85 1015.4
20260906081556 51 0 0.0 0.0 0.00 0.00 0.00 85 1015.3
20260906081026 51 0 0.0 0.0 0.00 0.00 0.00 86 1015.3
20260906080526 51 0 0.0 0.0 0.00 0.00 0.00 84 1015.3
20260906080056 51 0 0.0 0.0 0.00 0.00 0.00 84 1015.3
20260906075525 51 0 0.0 0.0 0.00 0.00 0.00 83 1015.3
20260906075028 52 0 0.0 0.0 0.00 0.00 0.00 83 1015.2
20260906074555 52 0 0.0 0.0 0.00 0.00 0.00 84 1015.2
20260906074029 52 0 0.0 0.0 0.00 0.00 0.00 84 1015.3
20260906073530 52 0 0.0 0.0 0.00 0.00 0.00 82 1015.3
20260906073047 52 0 0.0 0.0 0.00 0.00 0.00 82 1015.3
20260906072526 52 0 0.0 0.0 0.00 0.00 0.00 82 1015.4
20260906072026 53 0 0.0 0.0 0.00 0.00 0.00 82 1015.4
20260906071544 53 0 0.0 0.0 0.00 0.00 0.00 83 1015.4
20260906071027 54 0 0.0 0.0 0.00 0.00 0.00 84 1015.4
20260906070527 54 0 0.0 0.0 0.00 0.00 0.00 83 1015.4
20260906070045 54 0 0.0 0.0 0.00 0.00 0.00 83 1015.4
20260906065531 54 0 0.0 0.0 0.00 0.00 0.00 83 1015.4
20260906065028 54 0 0.0 0.0 0.00 0.00 0.00 81 1015.4
20260906064551 54 0 0.0 0.0 0.00 0.00 0.00 81 1015.4
20260906064028 55 0 0.0 0.0 0.00 0.00 0.00 80 1015.4
20260906063528 55 0 0.0 0.0 0.00 0.00 0.00 80 1015.3
20260906063050 55 0 0.0 0.0 0.00 0.00 0.00 79 1015.3
20260906062528 55 0 0.0 0.0 0.00 0.00 0.00 78 1015.3
20260906062028 56 0 0.0 0.0 0.00 0.00 0.00 80 1015.2
20260906061547 56 0 0.0 0.0 0.00 0.00 0.00 80 1015.2
20260906061028 57 0 0.0 0.0 0.00 0.00 0.00 80 1015.2
20260906060532 57 0 0.0 0.0 0.00 0.00 0.00 81 1015.3
20260906060044 57 0 0.0 0.0 0.00 0.00 0.00 79 1015.2
20260906055528 57 0 0.0 0.0 0.00 0.00 0.00 78 1015.3
20260906055028 57 0 0.0 0.0 0.00 0.00 0.00 79 1015.3
20260906054558 57 0 0.0 0.0 0.00 0.00 0.00 77 1015.3
20260906054029 58 0 0.0 0.0 0.00 0.00 0.00 76 1015.3
20260906053529 58 0 0.0 0.0 0.00 0.00 0.00 75 1015.3
20260906053047 59 0 0.0 0.0 0.00 0.00 0.00 76 1015.5
20260906052529 59 0 0.0 0.0 0.00 0.00 0.00 76 1015.5
20260906052029 60 0 0.0 0.0 0.00 0.00 0.00 76 1015.5
20260906051555 60 0 0.0 0.0 0.00 0.00 0.00 76 1015.5
20260906051031 60 0 0.0 0.0 0.00 0.00 0.00 75 1015.5
20260906050528 60 0 0.0 0.0 0.00 0.00 0.00 74 1015.5
20260906050042 60 0 0.0 0.0 0.00 0.00 0.00 73 1015.5
20260906045529 61 0 0.0 0.0 0.00 0.00 0.00 71 1015.3
20260906045028 62 0 0.0 0.0 0.00 0.00 0.00 72 1015.3
20260906044556 62 0 0.0 0.0 0.00 0.00 0.00 73 1015.3
20260906044029 62 0 0.0 0.0 0.00 0.00 0.00 73 1015.3
20260906043529 62 0 0.0 0.0 0.00 0.00 0.00 73 1015.3
20260906043046 62 0 0.0 0.0 0.00 0.00 0.00 72 1015.4
20260906042528 62 0 0.0 0.0 0.00 0.00 0.00 71 1015.3
20260906042029 63 0 0.0 0.0 0.00 0.00 0.00 69 1015.3
20260906041547 63 0 0.0 0.0 0.00 0.00 0.00 69 1015.1
20260906041032 63 0 0.0 0.0 0.00 0.00 0.00 68 1015.0
20260906040528 64 0 0.0 1.0 0.00 0.00 0.00 69 1015.0
20260906040047 64 0 0.0 1.0 0.00 0.00 0.00 68 1015.0
20260906035528 64 0 0.0 0.0 0.00 0.00 0.00 67 1015.0
20260906035032 65 0 0.0 0.0 0.00 0.00 0.00 66 1014.8
20260906034551 65 0 0.0 0.0 0.00 0.00 0.00 66 1014.7
20260906034029 66 0 0.0 0.0 0.00 0.00 0.00 66 1014.7
20260906033527 66 0 0.0 0.0 0.00 0.00 0.00 65 1014.5
20260906033048 66 0 0.0 0.0 0.00 0.00 0.00 65 1014.4
20260906032528 66 0 0.0 0.0 0.00 0.00 0.00 65 1014.4
20260906032030 66 0 0.0 0.0 0.00 0.00 0.00 64 1014.2
20260906031553 67 0 0.0 0.0 0.00 0.00 0.00 64 1014.2
20260906031027 68 0 0.0 0.0 0.00 0.00 0.00 63 1014.1
20260906030529 68 0 0.0 0.0 0.00 0.00 0.00 62 1014.1
20260906030041 68 0 0.0 0.0 0.00 0.00 0.00 62 1014.0
20260906025530 69 0 0.0 4.0 0.00 0.00 0.00 61 1014.0
20260906025027 69 0 0.0 4.0 0.00 0.00 0.00 60 1014.0
20260906024551 70 113 0.0 3.0 0.00 0.00 0.00 59 1014.0
20260906024028 70 183 0.0 3.0 0.00 0.00 0.00 59 1014.0
20260906023528 71 221 0.0 3.0 0.00 0.00 0.00 58 1014.0
20260906023044 71 231 0.0 2.0 0.00 0.00 0.00 57 1014.0
20260906022531 72 0 0.0 1.0 0.00 0.00 0.00 56 1014.0
20260906022027 72 0 0.0 1.0 0.00 0.00 0.00 55 1014.0
20260906021554 73 0 0.0 1.0 0.00 0.00 0.00 54 1014.0
20260906021026 73 0 0.0 2.0 0.00 0.00 0.00 53 1014.0
20260906020527 73 231 0.0 2.0 0.00 0.00 0.00 52 1013.9
20260906020052 74 255 0.0 2.0 0.00 0.00 0.00 51 1013.8
20260906015527 74 0 0.0 2.0 0.00 0.00 0.00 50 1013.8
20260906015029 75 0 0.0 4.0 0.00 0.00 0.00 49 1013.8
20260906014622 75 0 0.0 4.0 0.00 0.00 0.00 50 1013.8
20260906014028 76 89 1.0 6.0 0.00 0.00 0.00 48 1013.9
20260906013527 76 74 1.0 6.0 0.00 0.00 0.00 47 1013.8
20260906013049 77 214 1.0 6.0 0.00 0.00 0.00 46 1013.8
20260906012528 77 231 1.0 6.0 0.00 0.00 0.00 45 1013.9
20260906012027 78 150 2.0 6.0 0.00 0.00 0.00 44 1013.8
20260906011603 79 151 1.0 5.0 0.00 0.00 0.00 44 1013.8
20260906011029 80 95 2.0 6.0 0.00 0.00 0.00 42 1013.9
20260906010527 80 181 1.0 6.0 0.00 0.00 0.00 42 1013.8
20260906010054 81 115 0.0 4.0 0.00 0.00 0.00 42 1013.9
20260906005527 81 71 2.0 4.0 0.00 0.00 0.00 42 1013.9
20260906005032 81 186 2.0 4.0 0.00 0.00 0.00 41 1013.9
20260906004544 82 170 1.0 4.0 0.00 0.00 0.00 42 1013.9
20260906004028 82 266 1.0 4.0 0.00 0.00 0.00 41 1013.8
20260906003527 82 81 1.0 4.0 0.00 0.00 0.00 42 1013.9
20260906003108 82 259 1.0 5.0 0.00 0.00 0.00 42 1013.8
20260906002530 82 102 1.0 5.0 0.00 0.00 0.00 42 1013.8
20260906002029 83 77 1.0 4.0 0.00 0.00 0.00 41 1013.8
20260906001552 83 114 1.0 4.0 0.00 0.00 0.00 41 1013.7
20260906001027 83 240 1.0 4.0 0.00 0.00 0.00 41 1013.7
20260906000527 83 148 2.0 5.0 0.00 0.00 0.00 41 1013.7
20260906000050 83 171 1.0 5.0 0.00 0.00 0.00 41 1013.8
20260905235530 83 121 1.0 5.0 0.00 0.00 0.00 41 1013.7
20260905235029 83 244 1.0 4.0 0.00 0.00 0.00 41 1013.7
20260905234545 83 240 1.0 5.0 0.00 0.00 0.00 42 1013.6
20260905234029 83 235 1.0 5.0 0.00 0.00 0.00 42 1013.7
20260905233533 83 187 1.0 5.0 0.00 0.00 0.00 42 1013.7
20260905233054 83 232 1.0 6.0 0.00 0.00 0.00 40 1013.7
20260905232526 83 249 1.0 6.0 0.00 0.00 0.00 42 1013.8
20260905232030 83 271 2.0 8.0 0.00 0.00 0.00 42 1013.8
20260905231552 83 146 1.0 8.0 0.00 0.00 0.00 41 1013.9
20260905231030 83 250 2.0 9.0 0.00 0.00 0.00 41 1013.9
20260905230527 83 231 2.0 9.0 0.00 0.00 0.00 42 1013.9
20260905230045 83 77 1.0 7.0 0.00 0.00 0.00 42 1013.9
20260905225528 83 269 1.0 7.0 0.00 0.00 0.00 41 1014.0
20260905225029 83 53 2.0 6.0 0.00 0.00 0.00 40 1014.0
20260905224609 83 284 2.0 5.0 0.00 0.00 0.00 41 1014.0
20260905224030 83 247 1.0 7.0 0.00 0.00 0.00 41 1014.1
20260905223528 83 252 2.0 7.0 0.00 0.00 0.00 41 1014.1
20260905223052 83 245 1.0 5.0 0.00 0.00 0.00 41 1014.2
20260905222530 83 280 2.0 7.0 0.00 0.00 0.00 42 1014.2
20260905222027 83 88 3.0 7.0 0.00 0.00 0.00 42 1014.3
20260905221606 83 98 2.0 6.0 0.00 0.00 0.00 42 1014.3
20260905221027 83 221 2.0 8.0 0.00 0.00 0.00 41 1014.4
20260905220529 83 210 2.0 8.0 0.00 0.00 0.00 42 1014.3
20260905220046 84 278 1.0 6.0 0.00 0.00 0.00 41 1014.3
20260905215531 84 231 1.0 7.0 0.00 0.00 0.00 41 1014.4
20260905215027 83 16 1.0 8.0 0.00 0.00 0.00 43 1014.3
20260905214542 83 257 3.0 8.0 0.00 0.00 0.00 42 1014.4
20260905214029 83 232 2.0 8.0 0.00 0.00 0.00 42 1014.4
20260905213528 84 291 3.0 8.0 0.00 0.00 0.00 42 1014.3
20260905213101 84 264 2.0 7.0 0.00 0.00 0.00 41 1014.4
20260905212530 84 115 2.0 7.0 0.00 0.00 0.00 42 1014.4
20260905212028 84 262 3.0 7.0 0.00 0.00 0.00 42 1014.4
20260905211546 84 243 2.0 7.0 0.00 0.00 0.00 43 1014.4
20260905211030 84 124 2.0 7.0 0.00 0.00 0.00 43 1014.4
20260905210529 84 228 3.0 6.0 0.00 0.00 0.00 43 1014.4
20260905210058 84 124 2.0 5.0 0.00 0.00 0.00 42 1014.4
20260905205528 84 240 1.0 7.0 0.00 0.00 0.00 44 1014.4
20260905205033 84 160 2.0 7.0 0.00 0.00 0.00 43 1014.4
20260905204553 84 260 3.0 10.0 0.00 0.00 0.00 43 1014.4
20260905204029 84 276 3.0 10.0 0.00 0.00 0.00 43 1014.4
20260905203528 85 160 3.0 10.0 0.00 0.00 0.00 42 1014.5
20260905203054 85 179 3.0 7.0 0.00 0.00 0.00 42 1014.5
20260905202527 84 71 2.0 7.0 0.00 0.00 0.00 42 1014.5
20260905202026 84 96 3.0 7.0 0.00 0.00 0.00 43 1014.5
20260905201558 84 0 1.0 5.0 0.00 0.00 0.00 43 1014.5
20260905201028 84 193 3.0 7.0 0.00 0.00 0.00 42 1014.6
20260905200530 84 266 3.0 7.0 0.00 0.00 0.00 42 1014.6
20260905200054 84 353 1.0 8.0 0.00 0.00 0.00 42 1014.7
20260905195532 84 217 3.0 8.0 0.00 0.00 0.00 43 1014.6
20260905195029 84 282 2.0 7.0 0.00 0.00 0.00 43 1014.7
20260905194550 83 84 2.0 8.0 0.00 0.00 0.00 42 1014.7
20260905194028 83 99 3.0 8.0 0.00 0.00 0.00 43 1014.7
20260905193532 83 143 2.0 6.0 0.00 0.00 0.00 43 1014.7
20260905193054 83 134 2.0 6.0 0.00 0.00 0.00 44 1014.8
20260905192527 83 221 3.0 6.0 0.00 0.00 0.00 44 1014.8
20260905192028 83 132 1.0 6.0 0.00 0.00 0.00 43 1014.8
20260905191543 83 129 3.0 6.0 0.00 0.00 0.00 43 1014.8
20260905191026 83 246 2.0 6.0 0.00 0.00 0.00 43 1014.9
20260905190525 82 117 2.0 6.0 0.00 0.00 0.00 43 1014.8
20260905190053 81 82 1.0 6.0 0.00 0.00 0.00 45 1015.0
20260905185526 81 126 3.0 6.0 0.00 0.00 0.00 45 1015.0
20260905185026 81 120 0.0 5.0 0.00 0.00 0.00 44 1015.0
20260905184556 81 109 1.0 6.0 0.00 0.00 0.00 44 1015.1
20260905184028 80 113 2.0 6.0 0.00 0.00 0.00 45 1015.1
20260905183527 80 113 1.0 4.0 0.00 0.00 0.00 42 1015.2
20260905183045 79 116 1.0 2.0 0.00 0.00 0.00 44 1015.2
20260905182531 79 0 1.0 3.0 0.00 0.00 0.00 42 1015.4
20260905182026 78 57 1.0 3.0 0.00 0.00 0.00 42 1015.3
20260905181601 79 106 1.0 3.0 0.00 0.00 0.00 42 1015.4
20260905181029 78 239 0.0 3.0 0.00 0.00 0.00 44 1015.3
20260905180526 78 137 1.0 3.0 0.00 0.00 0.00 43 1015.4
20260905180053 77 0 0.0 2.0 0.00 0.00 0.00 45 1015.4
20260905175532 76 214 1.0 2.0 0.00 0.00 0.00 44 1015.4
20260905175029 75 0 0.0 4.0 0.00 0.00 0.00 47 1015.5
20260905174549 75 249 0.0 4.0 0.00 0.00 0.00 46 1015.5
20260905174027 75 322 0.0 4.0 0.00 0.00 0.00 46 1015.5
20260905173527 75 0 0.0 2.0 0.00 0.00 0.00 47 1015.5
20260905173043 74 254 1.0 2.0 0.00 0.00 0.00 46 1015.5
20260905172529 73 0 0.0 2.0 0.00 0.00 0.00 49 1015.5
20260905172027 72 266 0.0 4.0 0.00 0.00 0.00 50 1015.5
20260905171543 72 0 1.0 4.0 0.00 0.00 0.00 51 1015.5
20260905171029 71 233 0.0 4.0 0.00 0.00 0.00 53 1015.5
20260905170526 71 281 1.0 3.0 0.00 0.00 0.00 51 1015.5
20260905170054 70 252 1.0 3.0 0.00 0.00 0.00 53 1015.4
20260905165526 69 0 0.0 4.0 0.00 0.00 0.00 56 1015.5